Waarnemingen

Advertentie
Mijn weer
Carcassonne, Frankrijk (7635): temperatuur & dauwpunt: 23.03.2017 01:00:00 - 29.03.2017 01:00:00 (CEST)Carcassonne, Frankrijk (7635): temperatuur 5cm: 23.03.2017 01:00:00 - 29.03.2017 01:00:00 (CEST)Carcassonne, Frankrijk (7635): temperatuur -20cm & temperatuur -100cm: 23.03.2017 01:00:00 - 29.03.2017 01:00:00 (CEST)Carcassonne, Frankrijk (7635): windsnelheid & windstoten: 23.03.2017 01:00:00 - 29.03.2017 01:00:00 (CEST)Carcassonne, Frankrijk (7635): windrichting: 23.03.2017 01:00:00 - 29.03.2017 01:00:00 (CEST)Carcassonne, Frankrijk (7635): luchtdruk: 23.03.2017 01:00:00 - 29.03.2017 01:00:00 (CEST)Carcassonne, Frankrijk (7635): zicht: 23.03.2017 01:00:00 - 29.03.2017 01:00:00 (CEST)Carcassonne, Frankrijk (7635): Zonneschijnduur: 23.03.2017 01:00:00 - 29.03.2017 01:00:00 (CEST)Carcassonne, Frankrijk (7635): neerslag: 23.03.2017 01:00:00 - 29.03.2017 01:00:00 (CEST)
Datum & Tijd tt [°C] td [°C] tt 5cm [°C] tt -20cm [°C] tt -100cm [°C] ff [km/u] ff [kn] fx [km/u] fx [kn] dd ppp [hPa] vv [km] sd [min] rr [mm]
29.03.2017 01:00:00 8,4 6,0 4,6 14,8 12,2 4 2 8 4 Z 1027,7 60 0 0,0
29.03.2017 00:00:00 9,4 6,3 5,4 15,1 12,2 3 2 10 5 ZZW 1027,6 60 0 0,0
28.03.2017 23:00:00 10,9 6,4 6,3 15,3 12,2 3 2 11 6 WZW 1027,2 60 0 0,0
28.03.2017 22:00:00 12,5 6,3 6,8 15,5 12,2 6 3 9 5 W 1026,8 60 0 0,0
28.03.2017 21:00:00 13,6 5,5 8,0 15,6 12,2 6 3 11 6 W 1026,1 60 0 0,0
28.03.2017 20:00:00 17,2 6,4 13,9 15,6 12,2 6 3 16 9 WNW 1025,3 60 50 0,0
28.03.2017 19:00:00 19,6 4,9 19,5 15,5 12,2 13 7 25 13 NNW 1024,8 58 60 0,0
28.03.2017 18:00:00 20,3 5,5 22,5 15,2 12,2 16 9 32 17 NNW 1024,6 20 60 0,0
28.03.2017 17:00:00 20,5 6,8 23,4 14,6 12,2 17 9 31 17 WNW 1024,4 60 60 0,0
28.03.2017 16:00:00 20,5 7,1 24,1 14,1 12,2 13 7 35 19 NW 1024,7 60 58 0,0
28.03.2017 15:00:00 20,1 8,4 23,9 13,4 12,2 18 10 29 16 W 1025,2 20 60 0,0
28.03.2017 14:00:00 18,6 9,6 23,1 12,8 12,2 11 6 18 10 WNW 1025,8 56 60 0,0
28.03.2017 13:00:00 17,4 10,0 22,2 12,3 12,2 4 2 19 10 ZZW 1026,4 18 60 0,0
28.03.2017 12:00:00 15,1 8,8 20,0 12,0 12,2 3 2 13 7 NNO 1026,8 42 60 -
28.03.2017 11:00:00 13,6 9,4 16,8 11,8 12,2 6 4 11 6 ONO 1026,8 20 60 0,4
28.03.2017 10:00:00 11,0 8,6 8,3 11,9 12,2 3 1 8 4 Z 1026,7 20 32 0,0
28.03.2017 09:00:00 6,8 5,9 6,5 12,0 12,2 4 2 11 6 Z 1026,5 20 4 0,0
28.03.2017 08:00:00 6,6 5,7 5,8 12,1 12,2 3 2 9 5 ZZO 1025,9 17 0 0,0
28.03.2017 07:00:00 7,6 6,5 5,6 12,2 12,2 4 2 9 5 Z 1025,1 9 0 0,0
28.03.2017 06:00:00 9,4 8,2 8,6 12,3 12,1 5 3 13 7 Z 1024,7 13 0 0,0
28.03.2017 05:00:00 10,6 9,7 9,8 12,4 12,1 9 5 17 9 OZO 1024,1 13 0 0,0
28.03.2017 04:00:00 10,7 9,5 9,4 12,5 12,1 5 3 15 8 OZO 1024,0 20 0 0,0
28.03.2017 03:00:00 11,1 9,4 10,3 12,6 12,1 9 5 23 12 O 1023,9 31 0 0,0
28.03.2017 02:00:00 11,3 9,7 - - - 15 8 29 16 O 1023,7 45 - -
28.03.2017 01:00:00 11,6 9,7 11,1 12,8 12,1 21 11 34 18 O 1023,4 37 0 0,0
28.03.2017 00:00:00 11,7 9,8 10,8 12,9 12,1 18 10 36 19 O 1023,1 45 0 0,0
27.03.2017 23:00:00 11,8 9,7 11,2 13,0 12,1 24 13 35 19 O 1022,9 53 0 0,0
27.03.2017 22:00:00 11,9 9,5 11,5 13,1 12,1 25 14 46 25 O 1022,3 59 0 0,0
27.03.2017 21:00:00 12,4 9,4 12,0 13,2 12,1 24 13 43 23 O 1021,8 60 0 0,0
27.03.2017 20:00:00 12,6 8,9 12,3 13,2 12,1 27 15 45 25 O 1021,6 60 0 0,0
27.03.2017 19:00:00 13,2 9,1 13,3 13,1 12,1 32 17 52 28 O 1021,2 54 0 0,0
27.03.2017 18:00:00 13,8 9,4 14,3 13,0 12,1 36 19 54 29 O 1020,2 42 1 0,0
27.03.2017 17:00:00 14,5 8,9 15,3 12,9 12,1 31 17 49 26 O 1019,8 45 3 0,0
27.03.2017 16:00:00 14,8 7,8 15,2 12,7 12,1 29 16 58 31 O 1019,6 47 1 0,0
27.03.2017 15:00:00 16,0 8,7 16,0 12,4 12,1 37 20 61 33 O 1019,8 60 9 0,0
27.03.2017 14:00:00 15,6 9,7 16,7 12,2 12,1 43 23 67 36 O 1019,6 47 47 0,0
27.03.2017 13:00:00 15,2 9,3 15,3 11,9 12,1 36 20 58 32 O 1019,6 60 28 0,0
27.03.2017 12:00:00 15,3 10,3 13,9 11,8 12,0 39 21 61 33 O 1019,8 36 27 0,0
27.03.2017 11:00:00 13,0 9,4 12,4 11,8 12,1 38 20 55 30 O 1019,7 37 11 0,0
27.03.2017 10:00:00 11,6 9,3 11,3 11,8 12,0 35 19 53 29 O 1019,2 40 0 0,0
27.03.2017 09:00:00 11,1 9,2 - - - 31 17 52 28 O 1018,8 40 - 0,0
27.03.2017 08:00:00 10,8 9,4 10,7 11,9 12,1 23 12 50 27 O 1018,3 29 0 0,0
27.03.2017 07:00:00 10,9 9,7 10,5 11,9 12,1 17 9 48 26 OZO 1017,6 28 0 0,0
27.03.2017 06:00:00 10,8 9,2 10,6 12,0 12,0 20 11 45 24 OZO 1017,1 32 0 0,0
27.03.2017 05:00:00 10,9 9,3 10,1 12,1 12,1 22 12 41 22 O 1017,0 34 0 0,0
27.03.2017 04:00:00 10,6 8,9 10,2 12,2 12,0 22 12 37 20 O 1017,1 34 0 0,0
27.03.2017 03:00:00 10,9 9,5 10,5 12,3 12,0 20 11 32 18 O 1017,6 29 0 0,0
27.03.2017 02:00:00 11,0 9,7 10,8 12,4 12,1 21 11 29 16 O 1018,1 20 0 0,0
27.03.2017 01:00:00 11,1 9,8 10,8 12,5 12,1 19 10 30 16 O 1018,8 20 0 0,0
27.03.2017 00:00:00 11,0 9,7 10,7 12,6 12,1 17 9 31 17 O 1019,0 18 0 0,0
26.03.2017 23:00:00 10,9 8,8 9,7 12,7 12,1 18 10 32 17 O 1018,8 27 0 0,0
26.03.2017 22:00:00 10,6 7,5 9,6 12,8 12,1 15 8 24 13 O 1018,5 45 0 0,0
26.03.2017 21:00:00 12,0 6,7 10,9 12,9 12,1 13 7 29 16 O 1017,9 55 0 0,0
26.03.2017 20:00:00 14,0 6,6 13,0 12,9 12,1 16 9 35 19 O 1017,4 59 29 0,0
26.03.2017 19:00:00 15,9 8,4 16,0 12,7 12,1 16 8 37 20 OZO 1017,0 46 60 0,0
26.03.2017 18:00:00 16,6 8,0 18,7 12,5 12,1 27 15 42 23 O 1016,8 41 60 0,0
26.03.2017 17:00:00 17,1 7,2 19,9 12,1 12,1 29 15 42 23 O 1016,9 39 60 0,0
26.03.2017 16:00:00 17,1 7,7 20,1 11,7 12,1 30 16 43 23 O 1017,0 47 60 0,0
26.03.2017 15:00:00 16,7 7,6 17,7 11,2 12,1 29 15 41 22 O 1017,5 52 47 0,0
26.03.2017 14:00:00 15,6 8,1 18,3 10,7 12,1 29 16 41 22 O 1018,1 51 51 0,0
26.03.2017 13:00:00 15,1 9,0 17,4 10,3 12,1 21 12 37 20 O 1018,7 48 60 0,0
26.03.2017 12:00:00 13,7 8,9 15,8 10,0 12,1 20 11 39 21 O 1019,0 47 58 0,0
26.03.2017 11:00:00 12,5 8,0 14,4 9,8 12,1 18 10 43 23 OZO 1019,2 52 60 0,0
26.03.2017 10:00:00 11,5 7,6 10,0 9,9 12,2 10 5 19 10 OZO 1018,3 57 60 0,0
26.03.2017 09:00:00 6,8 6,2 0,4 10,0 12,2 0 0 5 3 N 1018,4 18 56 0,0
26.03.2017 08:00:00 3,5 2,8 -0,1 10,2 12,2 3 2 7 4 OZO 1017,9 4,5 0 0,0
26.03.2017 07:00:00 4,5 3,6 1,4 10,3 12,2 2 1 16 8 NW 1017,2 34 0 0,0
26.03.2017 06:00:00 4,5 3,9 -0,2 10,5 12,2 9 5 16 8 ZZO 1017,1 36 0 0,0
26.03.2017 05:00:00 3,2 2,3 0,0 10,7 12,2 4 2 10 6 ZZO 1016,9 15 0 0,0
26.03.2017 04:00:00 4,3 3,3 1,5 10,9 12,2 6 4 13 7 Z 1017,7 38 0 0,0
26.03.2017 03:00:00 4,6 3,3 1,5 11,1 12,2 6 4 11 6 Z 1017,5 42 0 0,0
26.03.2017 02:00:00 6,3 4,9 1,6 11,3 12,2 5 3 11 6 ZZO 1017,3 20 0 0,0
26.03.2017 01:00:00 7,3 5,1 2,9 11,4 12,2 5 3 10 5 ZZO 1017,0 34 0 0,0
26.03.2017 00:00:00 8,4 5,7 6,2 11,5 12,2 6 3 26 14 OZO 1016,8 47 0 0,0
25.03.2017 23:00:00 9,3 6,0 8,1 11,7 12,3 18 10 32 18 O 1016,2 47 0 0,0
25.03.2017 22:00:00 10,0 7,4 9,0 11,8 12,3 14 8 32 17 O 1015,0 36 0 0,0
25.03.2017 21:00:00 10,8 8,2 10,0 11,8 12,3 23 12 41 22 O 1013,9 35 0 0,0
25.03.2017 20:00:00 11,6 8,3 11,0 11,8 12,3 30 16 49 27 O 1013,0 41 20 0,0
25.03.2017 19:00:00 12,6 8,1 12,3 11,7 12,3 37 20 60 32 O 1012,9 51 35 0,0
25.03.2017 18:00:00 14,0 7,7 14,3 11,4 12,3 42 23 64 35 O 1012,4 27 51 0,0
25.03.2017 17:00:00 16,8 2,0 15,8 11,1 12,4 33 18 62 33 O 1011,7 30 49 0,0
25.03.2017 16:00:00 15,7 4,4 16,7 10,6 12,4 35 19 55 30 O 1011,4 47 40 0,0
25.03.2017 15:00:00 17,4 2,9 18,9 10,2 12,4 17 9 40 22 OZO 1011,0 60 60 0,0
25.03.2017 14:00:00 14,3 6,9 - - - 24 13 50 27 O 1011,1 60 - -
25.03.2017 13:00:00 11,0 8,0 9,4 9,8 12,4 24 13 45 24 O 1010,4 12 13 0,0
25.03.2017 12:00:00 9,8 7,7 8,7 9,7 12,4 24 13 45 24 O 1009,7 31 2 0,0
25.03.2017 11:00:00 9,4 7,8 8,5 9,6 12,4 20 11 35 19 OZO 1009,4 18 1 0,2
25.03.2017 10:00:00 10,4 9,2 9,8 9,6 12,5 19 10 54 29 O 1008,9 53 0 5,7
25.03.2017 09:00:00 11,0 9,9 4,5 9,8 12,5 43 23 72 39 O 1008,8 4,5 0 4,2
25.03.2017 08:00:00 4,6 4,0 4,5 10,0 12,5 13 7 27 15 NW 1010,3 2,4 0 10,5
25.03.2017 07:00:00 5,1 4,5 4,7 10,2 12,5 8 4 23 13 NW 1011,1 2,4 0 9,2
25.03.2017 06:00:00 4,8 4,1 4,5 10,3 12,5 4 2 19 11 NNW 1010,8 2,4 0 2,8
25.03.2017 05:00:00 4,6 3,9 4,2 10,4 12,5 10 5 23 12 W 1012,3 18 0 1,2
25.03.2017 04:00:00 4,4 3,7 4,1 10,5 12,5 6 3 11 6 WZW 1013,7 19 0 0,0
25.03.2017 03:00:00 4,1 3,4 4,0 10,6 12,5 3 2 11 6 ZZO 1015,4 60 0 0,0
25.03.2017 02:00:00 4,2 3,5 4,0 10,7 12,5 6 3 10 5 Z 1016,7 16 0 1,2
25.03.2017 01:00:00 4,2 3,3 4,0 10,8 12,5 2 1 12 6 ZZO 1017,6 3,6 0 2,0
25.03.2017 00:00:00 4,4 3,4 4,1 11,0 12,5 6 3 24 13 ZZW 1018,3 19 0 2,2
24.03.2017 23:00:00 5,3 4,1 4,9 11,1 12,5 13 7 23 12 WZW 1018,4 9 0 2,6
24.03.2017 22:00:00 6,1 5,1 5,7 11,3 12,5 12 6 28 15 W 1018,1 11 0 4,1
24.03.2017 21:00:00 6,4 5,3 5,9 11,4 12,6 18 10 30 16 W 1017,9 2,2 0 4,2
24.03.2017 20:00:00 6,9 5,4 6,2 11,4 12,6 21 11 34 18 W 1017,4 10 0 1,2
24.03.2017 19:00:00 7,3 6,1 6,9 11,4 12,5 16 9 24 13 W 1017,0 8 0 2,8
24.03.2017 18:00:00 7,8 6,4 7,2 11,4 12,6 13 7 23 12 WZW 1017,3 7 0 2,1
24.03.2017 17:00:00 8,5 7,1 8,2 11,3 12,6 10 6 17 9 WNW 1016,9 5 0 2,0
24.03.2017 16:00:00 9,2 7,6 9,0 11,2 12,5 5 3 15 8 NW 1017,0 4,5 0 1,6
24.03.2017 15:00:00 10,9 8,8 10,1 11,1 12,6 4 2 16 9 O 1016,7 16 0 0,8
24.03.2017 14:00:00 10,8 8,9 10,7 11,0 12,6 10 5 26 14 ONO 1016,7 8 0 0,8
24.03.2017 13:00:00 10,8 9,4 10,2 10,9 12,6 10 5 16 9 O 1016,3 13 0 0,2
24.03.2017 12:00:00 8,8 7,2 7,9 10,9 12,6 5 3 15 8 OZO 1016,3 16 0 0,0
24.03.2017 11:00:00 6,6 5,4 7,2 10,9 12,6 0 0 6 3 N 1016,6 16 0 0,0
24.03.2017 10:00:00 5,6 4,7 4,6 10,9 12,5 2 1 6 4 NNW 1016,2 16 0 0,0
24.03.2017 09:00:00 4,4 3,8 2,3 11,1 12,6 4 2 8 4 WNW 1015,8 15 0 0,0
24.03.2017 08:00:00 3,3 2,6 2,3 11,3 12,6 0 0 7 4 N 1015,2 11 0 0,0
24.03.2017 07:00:00 3,6 2,9 - - - 4 2 8 4 Z 1014,6 15 - 0,0
24.03.2017 06:00:00 3,6 2,9 0,8 11,6 12,6 3 2 5 3 WNW 1014,5 14 0 0,0
24.03.2017 05:00:00 3,1 2,2 1,5 11,8 12,6 3 1 5 3 NW 1013,5 13 0 0,0
24.03.2017 04:00:00 3,0 2,0 0,5 12,0 12,6 4 2 5 3 O 1014,2 14 0 0,0
24.03.2017 03:00:00 3,7 2,4 0,9 12,2 12,6 3 2 10 6 OZO 1014,3 18 0 0,0
24.03.2017 02:00:00 5,1 3,8 1,2 12,4 12,6 6 4 10 6 OZO 1014,2 32 0 0,0
24.03.2017 01:00:00 5,4 3,1 2,8 12,6 12,6 5 3 7 4 O 1014,2 48 0 0,0
24.03.2017 00:00:00 6,6 4,9 3,2 12,8 12,6 2 1 9 5 O 1014,1 17 0 0,0
23.03.2017 23:00:00 6,2 3,7 3,7 13,0 12,6 2 1 7 4 Z 1013,5 51 0 0,0
23.03.2017 22:00:00 6,8 3,0 4,0 13,1 12,6 4 2 10 5 ZZW 1013,1 60 0 0,0
23.03.2017 21:00:00 9,0 3,0 7,4 13,2 12,6 6 3 13 7 W 1012,4 60 0 0,0
23.03.2017 20:00:00 10,9 2,7 10,2 13,1 12,6 10 6 24 13 W 1011,3 60 45 0,0
23.03.2017 19:00:00 12,6 2,4 12,8 12,9 12,6 14 8 22 12 W 1010,2 45 60 0,0
23.03.2017 18:00:00 13,0 2,8 15,7 12,6 12,6 16 8 27 14 W 1009,7 60 60 0,0
23.03.2017 17:00:00 12,8 4,0 15,4 12,3 12,6 18 10 31 17 WNW 1009,3 48 60 0,0
23.03.2017 16:00:00 11,6 4,3 11,5 11,9 12,6 18 10 31 17 W 1009,6 53 57 0,0
23.03.2017 15:00:00 10,2 4,8 9,1 11,9 12,6 16 8 23 13 WNW 1010,5 27 8 0,0
23.03.2017 14:00:00 8,7 6,8 6,1 11,9 12,6 11 6 18 10 NW 1011,2 57 2 0,6
23.03.2017 13:00:00 6,2 5,2 5,9 11,9 12,6 12 6 26 14 WNW 1011,5 4,5 0 1,4
23.03.2017 12:00:00 6,2 4,4 5,9 11,9 12,6 19 10 37 20 WNW 1011,1 19 0 0,0
23.03.2017 11:00:00 7,7 3,7 8,0 11,9 12,6 21 12 40 21 W 1010,4 60 0 0,0
23.03.2017 10:00:00 7,5 3,9 7,2 12,0 12,6 17 9 36 19 W 1009,8 60 0 0,0
23.03.2017 09:00:00 7,0 4,0 6,7 12,1 12,6 21 11 33 18 W 1009,2 60 0 0,0
23.03.2017 08:00:00 7,2 3,6 7,1 12,2 12,6 15 8 32 18 W 1009,0 60 0 0,0
23.03.2017 07:00:00 7,2 3,8 6,9 12,4 12,6 14 8 27 15 W 1008,0 60 0 0,0
23.03.2017 06:00:00 7,1 3,7 6,7 12,5 12,6 11 6 22 12 W 1007,8 60 0 0,0
23.03.2017 05:00:00 6,9 3,9 5,1 12,6 12,6 10 6 22 12 WZW 1008,1 60 0 0,0
23.03.2017 04:00:00 6,9 3,9 6,2 12,8 12,6 8 4 39 21 ZZW 1008,1 60 0 0,0
23.03.2017 03:00:00 7,4 3,8 7,3 12,9 12,6 26 14 48 26 W 1009,0 60 0 0,0
23.03.2017 02:00:00 7,8 4,0 7,6 13,1 12,6 32 17 51 28 W 1009,2 60 0 0,0
23.03.2017 01:00:00 - - - - - - - - - - - - - -

tt = temperatuur
td = dauwpunt
tt 5cm = temperatuur 5cm
tt -20cm = temperatuur -20cm
tt -100cm = temperatuur -100cm
ff = windsnelheid
fx = windstoten
dd = windrichting
ppp = luchtdruk
vv = zicht
sd = Zonneschijnduur
rr = neerslag

Weerstations in de omgeving